ONEWEB-0311, 49097

Orbit data source: Space-Track

ONEWEB-0311, 49097 is a payload satellite owned by One Web (NAA) (UK) in LEO that was launched on Sat, 21 Aug 2021 UTC via a SOYUZ-2-1B launch vehicle from the Tyuratam Missile And Space Complex (TTMTR). Payload-class satellites include a variety of spacecraft equipped with specific instruments for various scientific and technological missions. These include communications satellites like Starlink; space stations such as the ISS; scientific satellites like the Hubble; Earth observation satellites from companies like Planet Labs, Umbra, and HawkEye 360; GPS; miniature CubeSats for education and research; and military/defense satellites.

Loading next visibility...
Identifier
49097, 2021-075Y
Orbit
LEO
Country
Flag of UKUK
Related business
Manufacturer
One Web
Mission
Operational Commercial Communications
Bus & Motor
ARROW, Unknown motor
Mass
148 kg wet, ~140 kg dry
Launch date (UTC)
2021-08-21 (5 years ago)
Launch vehicle
SOYUZ-2-1B
Launch site
Tyuratam Missile And Space Complex (TTMTR)
Object type
Payload
Rocket body
Debris
Shape & HBR
Trap Box + 2 Pan, 6.7 m
Radar Cross Section
3.464 m², Large (>1 m²)

Expand to show TLE details & history
Last TLE update: 1 day ago

TLE from 1 day ago
0 ONEWEB-0311
1 49097U 21075Y   26175.23377745 -.00000005  00000-0 -45003-4 0  9996
2 49097  87.9133   4.4605 0002170  79.6983 280.4393 13.17650969234558
Epoch: 2026-06-24T05:36Z
TLE epoch observation values (Epoch: 2026-06-24T05:36:38.371Z)
Latitude
-0.00004°
Longitude
7.9067°
Altitude
1,196.307 km
Speed
7.256 km/s
True Right ascension
00h 17m 50s
True Declination
0° 00' 00"
Sunlit
Object was in daylight at epoch
Visualization orbit readout
Latitude
Unknown
Longitude
Unknown
Altitude
Unknown
Speed
Unknown
Apparent Right ascension
Unknown
Apparent Declination
Unknown
Sunlit
N/A
Visualization observer readout
Local Sidereal Time
17:12:41
Azimuth
Unknown
Elevation
Unknown
Doppler factor
Unknown
Orbital elements
Apogee altitude
1,192.457 km
Perigee altitude
1,189.172 km
Semi-major axis
7,568.952 km
Eccentricity
0.00022
Inclination
87.9133°
RAAN
4.4605°
Arg. of periapsis
79.6983°
True anomaly
280.41484°
Mean anomaly
280.4393°
Eccentric anomaly
280.42707°
Mean motion
3.29602 °/min
Orbital period
109.22 mins
BSTAR
-0.000045003
Loading maneuver chart data...
Computing Atmospheric mass density...
Loading historical data...
Loading historical data...
Loading historical data...
Loading historical data...
Loading historical data...
Loading historical data...
Loading historical data...

Documentation

Showing up to 5 results
|